User: anonymous   Login
Location: Luxembourg
(49.6117°N, 6.1300°E)
Time: 14:55:20
(UTC+02:00)
Language:

Envisat - Orbit

View from above orbital plane
View from above orbital plane
View from above satellite
View from above satellite

Ground track
Ground track

The orbit data is extracted from the following two-line orbital elements,

1 27386U 02009A   19111.07903939  .00000005  00000-0  15085-4 0  9998
2 27386  98.1543 135.0877 0001416  90.1932 331.1864 14.37946447897778
Epoch (UTC): 21 April 2019 01:53:49
Eccentricity: 0.0001416
inclination: 98.1543°
perigee height: 764 km
apogee height: 766 km
right ascension of ascending node: 135.0877°
argument of perigee: 90.1932°
revolutions per day: 14.37946447
mean anomaly at epoch: 331.1864°
orbit number at epoch: 89777

The dashed part of the orbit path shows where the satellite is in the earth's shadow,  

DLR